******** Week 143 almanac for PRN-1 ******** ID: 1 Health: 0 Eccentricity: 0.01122426987 Time of Applicability(s): 147456 Orbital Inclination(rad): 0.9863760119 Rate of Right Ascen(r/s): -8.126052768e-09 SQRT(A) (m 1/2): 5153.624512 Right Ascen at Week(rad): -1.158947578 Argument of Perigee(rad): 0.8842564095 Mean Anom(rad): 2.069406371 Af0(s): 0.0003685467407 Af1(s/s): -1.091394e-11 week: 143 ******** Week 143 almanac for PRN-2 ******** ID: 2 Health: 0 Eccentricity: 0.02065229416 Time of Applicability(s): 147456 Orbital Inclination(rad): 0.9647025412 Rate of Right Ascen(r/s): -8.263201338e-09 SQRT(A) (m 1/2): 5153.616699 Right Ascen at Week(rad): -1.247364568 Argument of Perigee(rad): -1.462934933 Mean Anom(rad): 2.239008246 Af0(s): -0.0005117448608 Af1(s/s): 0 week: 143 ******** Week 143 almanac for PRN-3 ******** ID: 3 Health: 0 Eccentricity: 0.003845214844 Time of Applicability(s): 147456 Orbital Inclination(rad): 0.9724503426 Rate of Right Ascen(r/s): -7.646032773e-09 SQRT(A) (m 1/2): 5153.667969 Right Ascen at Week(rad): -0.123539008 Argument of Perigee(rad): 0.9847598647 Mean Anom(rad): 0.8977869739 Af0(s): -5.124985352e-05 Af1(s/s): -1.455192e-11 week: 143 ******** Week 143 almanac for PRN-4 ******** ID: 4 Health: 0 Eccentricity: 0.001633167267 Time of Applicability(s): 147456 Orbital Inclination(rad): 0.960801676 Rate of Right Ascen(r/s): -7.703178011e-09 SQRT(A) (m 1/2): 5153.61084 Right Ascen at Week(rad): 0.9572425863 Argument of Perigee(rad): -3.117520092 Mean Anom(rad): -2.378792994 Af0(s): -0.0001552569092 Af1(s/s): 0 week: 143 ******** Week 143 almanac for PRN-5 ******** ID: 5 Health: 0 Eccentricity: 0.005895137787 Time of Applicability(s): 147456 Orbital Inclination(rad): 0.9594234901 Rate of Right Ascen(r/s): -7.794610391e-09 SQRT(A) (m 1/2): 5153.601074 Right Ascen at Week(rad): -0.1633494796 Argument of Perigee(rad): 1.015699014 Mean Anom(rad): -1.571134133 Af0(s): -5.275720215e-05 Af1(s/s): 0 week: 143 ******** Week 143 almanac for PRN-6 ******** ID: 6 Health: 0 Eccentricity: 0.002579212189 Time of Applicability(s): 147456 Orbital Inclination(rad): 0.9857588243 Rate of Right Ascen(r/s): -8.114623721e-09 SQRT(A) (m 1/2): 5153.597168 Right Ascen at Week(rad): -1.167218191 Argument of Perigee(rad): -1.012799955 Mean Anom(rad): 2.450279645 Af0(s): 0.0001266172852 Af1(s/s): 1.091394e-11 week: 143 ******** Week 143 almanac for PRN-7 ******** ID: 7 Health: 0 Eccentricity: 0.01539611816 Time of Applicability(s): 147456 Orbital Inclination(rad): 0.950627069 Rate of Right Ascen(r/s): -8.046049436e-09 SQRT(A) (m 1/2): 5153.636719 Right Ascen at Week(rad): 1.976977662 Argument of Perigee(rad): -2.297360186 Mean Anom(rad): 1.412612798 Af0(s): 0.000235900061 Af1(s/s): 3.637979e-12 week: 143 ******** Week 143 almanac for PRN-8 ******** ID: 8 Health: 0 Eccentricity: 0.007064819336 Time of Applicability(s): 147456 Orbital Inclination(rad): 0.9652478234 Rate of Right Ascen(r/s): -7.908900866e-09 SQRT(A) (m 1/2): 5153.658203 Right Ascen at Week(rad): -2.238410907 Argument of Perigee(rad): 0.07247722169 Mean Anom(rad): -1.903126 Af0(s): -3.994473877e-05 Af1(s/s): 0 week: 143 ******** Week 143 almanac for PRN-9 ******** ID: 9 Health: 0 Eccentricity: 0.002356529236 Time of Applicability(s): 147456 Orbital Inclination(rad): 0.9538148728 Rate of Right Ascen(r/s): -7.737465153e-09 SQRT(A) (m 1/2): 5153.591309 Right Ascen at Week(rad): 0.9046217272 Argument of Perigee(rad): 1.85624521 Mean Anom(rad): -1.582833732 Af0(s): -0.000283381543 Af1(s/s): 0 week: 143 ******** Week 143 almanac for PRN-10 ******** ID: 10 Health: 0 Eccentricity: 0.007416725159 Time of Applicability(s): 147456 Orbital Inclination(rad): 0.9722825634 Rate of Right Ascen(r/s): -7.646032773e-09 SQRT(A) (m 1/2): 5153.640625 Right Ascen at Week(rad): -0.1263410696 Argument of Perigee(rad): -2.545091342 Mean Anom(rad): 0.07238659099 Af0(s): -0.0002245949463 Af1(s/s): -1.091394e-11 week: 143 ******** Week 143 almanac for PRN-11 ******** ID: 11 Health: 255 Eccentricity: 0.0003247261047 Time of Applicability(s): 147456 Orbital Inclination(rad): 0.9614847768 Rate of Right Ascen(r/s): -8.343204671e-09 SQRT(A) (m 1/2): 5153.702148 Right Ascen at Week(rad): -1.114162529 Argument of Perigee(rad): 2.781397787 Mean Anom(rad): -1.976511776 Af0(s): -7.536743164e-06 Af1(s/s): -3.637979e-11 week: 143 ******** Week 143 almanac for PRN-12 ******** ID: 12 Health: 0 Eccentricity: 0.008524417877 Time of Applicability(s): 147456 Orbital Inclination(rad): 0.9712519201 Rate of Right Ascen(r/s): -7.474597061e-09 SQRT(A) (m 1/2): 5153.583984 Right Ascen at Week(rad): 3.089106244 Argument of Perigee(rad): 1.232836316 Mean Anom(rad): 0.7449386714 Af0(s): -0.000119080542 Af1(s/s): -7.275958e-12 week: 143 ******** Week 143 almanac for PRN-13 ******** ID: 13 Health: 0 Eccentricity: 0.00578212738 Time of Applicability(s): 147456 Orbital Inclination(rad): 0.9682019348 Rate of Right Ascen(r/s): -7.680319916e-09 SQRT(A) (m 1/2): 5153.621582 Right Ascen at Week(rad): 1.056809025 Argument of Perigee(rad): 0.9755177802 Mean Anom(rad): -2.53395575 Af0(s): 0.0001891722534 Af1(s/s): 7.275958e-12 week: 143 ******** Week 143 almanac for PRN-14 ******** ID: 14 Health: 0 Eccentricity: 0.001277923584 Time of Applicability(s): 147456 Orbital Inclination(rad): 0.9546537686 Rate of Right Ascen(r/s): -7.657461821e-09 SQRT(A) (m 1/2): 5153.597656 Right Ascen at Week(rad): 3.058507522 Argument of Perigee(rad): 3.062048111 Mean Anom(rad): 0.7609600821 Af0(s): -5.124985352e-05 Af1(s/s): -7.275958e-12 week: 143 ******** Week 143 almanac for PRN-15 ******** ID: 15 Health: 0 Eccentricity: 0.01391124725 Time of Applicability(s): 147456 Orbital Inclination(rad): 0.929738565 Rate of Right Ascen(r/s): -7.988904198e-09 SQRT(A) (m 1/2): 5153.662598 Right Ascen at Week(rad): 0.7996863559 Argument of Perigee(rad): 1.068579032 Mean Anom(rad): -2.922097456 Af0(s): -7.461375732e-05 Af1(s/s): 3.637979e-12 week: 143 ******** Week 143 almanac for PRN-16 ******** ID: 16 Health: 0 Eccentricity: 0.01258897781 Time of Applicability(s): 147456 Orbital Inclination(rad): 0.9712219595 Rate of Right Ascen(r/s): -7.508884204e-09 SQRT(A) (m 1/2): 5153.540039 Right Ascen at Week(rad): 3.107738718 Argument of Perigee(rad): 0.6920241989 Mean Anom(rad): -1.113759185 Af0(s): -0.0003557342773 Af1(s/s): -7.275958e-12 week: 143 ******** Week 143 almanac for PRN-17 ******** ID: 17 Health: 0 Eccentricity: 0.01374721527 Time of Applicability(s): 147456 Orbital Inclination(rad): 0.9802580651 Rate of Right Ascen(r/s): -7.783181343e-09 SQRT(A) (m 1/2): 5153.692383 Right Ascen at Week(rad): -2.157138762 Argument of Perigee(rad): -1.512767212 Mean Anom(rad): -1.99970537 Af0(s): 0.0004393921265 Af1(s/s): 3.637979e-12 week: 143 ******** Week 143 almanac for PRN-18 ******** ID: 18 Health: 0 Eccentricity: 0.002095222473 Time of Applicability(s): 147456 Orbital Inclination(rad): 0.9701673477 Rate of Right Ascen(r/s): -8.263201338e-09 SQRT(A) (m 1/2): 5153.580078 Right Ascen at Week(rad): -1.150491958 Argument of Perigee(rad): 3.099898038 Mean Anom(rad): 2.264478469 Af0(s): 0.0002117824829 Af1(s/s): -7.275958e-12 week: 143 ******** Week 143 almanac for PRN-19 ******** ID: 19 Health: 0 Eccentricity: 0.008928775787 Time of Applicability(s): 147456 Orbital Inclination(rad): 0.9789457925 Rate of Right Ascen(r/s): -7.840326581e-09 SQRT(A) (m 1/2): 5153.634277 Right Ascen at Week(rad): -2.112201664 Argument of Perigee(rad): 1.991627628 Mean Anom(rad): 0.3936072614 Af0(s): 7.988947754e-05 Af1(s/s): 3.637979e-12 week: 143 ******** Week 143 almanac for PRN-20 ******** ID: 20 Health: 0 Eccentricity: 0.005357265472 Time of Applicability(s): 147456 Orbital Inclination(rad): 0.9415729871 Rate of Right Ascen(r/s): -8.034620388e-09 SQRT(A) (m 1/2): 5153.671387 Right Ascen at Week(rad): -0.2765333683 Argument of Perigee(rad): 3.09047694 Mean Anom(rad): -3.136633807 Af0(s): 0.0004084914795 Af1(s/s): 0 week: 143 ******** Week 143 almanac for PRN-21 ******** ID: 21 Health: 0 Eccentricity: 0.02445936203 Time of Applicability(s): 147456 Orbital Inclination(rad): 0.958938129 Rate of Right Ascen(r/s): -8.286059433e-09 SQRT(A) (m 1/2): 5153.547363 Right Ascen at Week(rad): -1.248722156 Argument of Perigee(rad): -1.033477237 Mean Anom(rad): -1.85004974 Af0(s): 0.0001228489136 Af1(s/s): 0 week: 143 ******** Week 143 almanac for PRN-22 ******** ID: 22 Health: 255 Eccentricity: 0.006850719452 Time of Applicability(s): 147456 Orbital Inclination(rad): 0.9383132779 Rate of Right Ascen(r/s): -8.023191341e-09 SQRT(A) (m 1/2): 5153.595215 Right Ascen at Week(rad): -0.230721796 Argument of Perigee(rad): -0.8637540222 Mean Anom(rad): -3.111647447 Af0(s): -0.0003368924194 Af1(s/s): 7.275958e-12 week: 143 ******** Week 143 almanac for PRN-23 ******** ID: 23 Health: 0 Eccentricity: 0.001959323883 Time of Applicability(s): 147456 Orbital Inclination(rad): 0.9673210943 Rate of Right Ascen(r/s): -7.714607058e-09 SQRT(A) (m 1/2): 5153.657227 Right Ascen at Week(rad): -0.1509652812 Argument of Perigee(rad): 2.897843632 Mean Anom(rad): 1.430526967 Af0(s): 1.205878906e-05 Af1(s/s): -3.637979e-12 week: 143 ******** Week 143 almanac for PRN-24 ******** ID: 24 Health: 0 Eccentricity: 0.01225042343 Time of Applicability(s): 147456 Orbital Inclination(rad): 0.934052886 Rate of Right Ascen(r/s): -8.228914196e-09 SQRT(A) (m 1/2): 5153.625488 Right Ascen at Week(rad): 1.894937778 Argument of Perigee(rad): 0.7978362912 Mean Anom(rad): 2.380249452 Af0(s): 0.0002185655518 Af1(s/s): 0 week: 143 ******** Week 143 almanac for PRN-25 ******** ID: 25 Health: 0 Eccentricity: 0.01030158997 Time of Applicability(s): 147456 Orbital Inclination(rad): 0.9586385234 Rate of Right Ascen(r/s): -7.600316584e-09 SQRT(A) (m 1/2): 5153.683105 Right Ascen at Week(rad): 3.012949865 Argument of Perigee(rad): 0.967273008 Mean Anom(rad): 0.5223728895 Af0(s): 0.00020952146 Af1(s/s): 7.275958e-12 week: 143 ******** Week 143 almanac for PRN-26 ******** ID: 26 Health: 0 Eccentricity: 0.006733417511 Time of Applicability(s): 147456 Orbital Inclination(rad): 0.9394757477 Rate of Right Ascen(r/s): -7.851755628e-09 SQRT(A) (m 1/2): 5153.625488 Right Ascen at Week(rad): 2.966786631 Argument of Perigee(rad): 0.3388445967 Mean Anom(rad): -0.1247505382 Af0(s): 0.0001349077026 Af1(s/s): 3.637979e-12 week: 143 ******** Week 143 almanac for PRN-27 ******** ID: 27 Health: 0 Eccentricity: 0.009949207306 Time of Applicability(s): 147456 Orbital Inclination(rad): 0.973912418 Rate of Right Ascen(r/s): -7.840326581e-09 SQRT(A) (m 1/2): 5153.607422 Right Ascen at Week(rad): -2.21933277 Argument of Perigee(rad): 0.6277647849 Mean Anom(rad): -1.985573722 Af0(s): 3.617636719e-05 Af1(s/s): 2.546585e-11 week: 143 ******** Week 143 almanac for PRN-29 ******** ID: 29 Health: 0 Eccentricity: 0.001753330231 Time of Applicability(s): 147456 Orbital Inclination(rad): 0.9822354622 Rate of Right Ascen(r/s): -7.806039438e-09 SQRT(A) (m 1/2): 5153.729004 Right Ascen at Week(rad): -2.144215274 Argument of Perigee(rad): 2.302452733 Mean Anom(rad): -1.881649145 Af0(s): -0.0003655320435 Af1(s/s): -3.637979e-12 week: 143 ******** Week 143 almanac for PRN-30 ******** ID: 30 Health: 0 Eccentricity: 0.005388259888 Time of Applicability(s): 147456 Orbital Inclination(rad): 0.9358085749 Rate of Right Ascen(r/s): -8.194627053e-09 SQRT(A) (m 1/2): 5153.523926 Right Ascen at Week(rad): 1.990779744 Argument of Perigee(rad): -2.753210516 Mean Anom(rad): 1.416035418 Af0(s): -0.0003986937134 Af1(s/s): -3.637979e-12 week: 143 ******** Week 143 almanac for PRN-31 ******** ID: 31 Health: 0 Eccentricity: 0.01046514511 Time of Applicability(s): 147456 Orbital Inclination(rad): 0.954887461 Rate of Right Ascen(r/s): -7.977475151e-09 SQRT(A) (m 1/2): 5153.599609 Right Ascen at Week(rad): 1.994903441 Argument of Perigee(rad): 0.361773415 Mean Anom(rad): 0.9612689113 Af0(s): -0.0001251099365 Af1(s/s): -3.637979e-12 week: 143 ******** Week 143 almanac for PRN-32 ******** ID: 32 Health: 0 Eccentricity: 0.005369663238 Time of Applicability(s): 147456 Orbital Inclination(rad): 0.9576857775 Rate of Right Ascen(r/s): -7.668890868e-09 SQRT(A) (m 1/2): 5153.705566 Right Ascen at Week(rad): 0.9156337319 Argument of Perigee(rad): -2.381427277 Mean Anom(rad): -1.289558776 Af0(s): -3.542269287e-05 Af1(s/s): -7.275958e-12 week: 143